#timestamp,LO_Frequency,Hit,StdDev 
1589792415.7,286046999.3,N
1589792435.6,286046997.8,N
1589792455.4,286046996.2,N
1589792475.3,286046995.8,N
1589792495.1,286046994.9,N
1589792496.0,286046994.9,N
1589792515.8,286046996.4,N
1589792535.7,286046996.2,N
1589792555.5,286046994.6,N
1589792575.4,286046995.7,N
1589792595.2,286046990.7,N
1589792615.0,286046990.7,N
1589792615.9,286046990.7,N
1589792635.8,286046990.8,N
1589792655.6,286046992.4,N
1589792675.4,286046993.6,N
1589792695.3,286046991.8,N
1589792715.1,286046993.6,N
1589792735.9,286046992.2,N
1589792755.7,286046992.4,N
1589792775.5,286046992.5,N
1589792795.4,286046994.4,N
1589792815.2,286046993.4,N
1589792835.1,286046993.0,N
1589792836.0,286046993.0,N
1589792855.8,286046991.7,N
1589792875.6,286046994.8,N
1589792895.5,286046994.3,N
1589792915.3,286046994.5,N
1589792935.1,286046991.9,Y
1589792955.9,286047000.7,P
1589792975.7,286047000.3,N
1589792995.6,286046998.8,N
1589793015.4,286047001.1,N
1589793035.2,286047000.9,N
1589793055.1,286046998.7,N
1589793056.0,286046998.7,N
1589793075.8,286046998.3,N
1589793095.7,286047000.7,N
1589793115.5,286046999.1,N
1589793135.3,286047002.6,N
1589793155.2,286046999.3,N
1589793175.0,286047000.1,N
1589793175.9,286047000.1,N
1589793195.8,286046998.1,N
1589793215.6,286046996.7,N
1589793235.4,286046999.1,N
1589793255.3,286047000.0,N
1589793275.1,286046999.9,N
1589793295.9,286046997.2,N
1589793315.7,286046999.6,N
1589793335.5,286046998.1,N
1589793355.4,286047000.8,N
1589793375.2,286047000.7,N
1589793395.0,286047002.1,N
1589793395.9,286047002.1,N
1589793415.8,286047002.1,N
1589793435.6,286047004.1,N
1589793455.5,286047004.1,N
1589793475.3,286047004.0,N
1589793495.1,286047001.3,N
1589793515.9,286047000.3,N
1589793535.7,286046999.9,N
1589793555.6,286047000.2,N
1589793575.4,286046999.8,N
1589793595.2,286046998.6,N
1589793615.1,286046999.9,N
1589793616.0,286046999.9,N
1589793635.8,286047000.6,N
1589793655.6,286047002.7,N
1589793675.5,286047003.0,N
1589793695.3,286047002.4,N
1589793715.2,286046999.8,N
1589793735.9,286047001.4,N
1589793755.7,286047004.2,N
1589793775.6,286047001.1,N
1589793795.4,286047000.4,N
1589793815.2,286047001.0,N
1589793835.1,286046998.1,N
1589793836.0,286046998.1,N
1589793855.8,286047000.9,N
1589793875.7,286046998.5,N
1589793895.5,286046998.8,N
1589793915.3,286046998.2,N
1589793935.2,286046998.5,N
1589793955.0,286047000.0,N
1589793955.9,286047000.0,N
1589793975.8,286046998.3,N
1589793995.6,286047000.7,N
1589794015.4,286047004.1,N
1589794035.3,286047004.7,N
1589794055.1,286047003.4,N
1589794075.9,286047003.0,N
1589794095.7,286047005.8,N
1589794115.5,286047003.6,N
1589794135.4,286047004.0,N
1589794155.2,286047003.9,N
1589794175.0,286047002.2,N
1589794176.0,286047002.2,N
1589794195.8,286047002.5,N
1589794215.6,286047001.7,N
1589794235.5,286047004.2,N
1589794255.3,286047006.0,N
1589794275.1,286047004.3,N
1589794295.9,286047005.7,N
1589794315.7,286047001.8,N
1589794335.6,286047004.0,N
1589794355.4,286047002.0,N
1589794375.2,286047001.8,N
1589794395.1,286047004.0,N
1589794396.0,286047004.0,N
1589794415.8,286047000.3,N
1589794435.6,286046999.4,N
1589794455.5,286047002.3,N
1589794475.3,286047002.0,N
1589794495.2,286047001.6,N
1589794515.9,286047000.5,N
1589794535.7,286046999.9,N
1589794555.6,286047015.3,Y
1589794575.4,286047014.8,P
1589794595.3,286047011.1,N
1589794615.1,286047010.3,N
1589794616.0,286047010.3,N
1589794635.8,286047008.7,N
1589794655.7,286047004.9,N
1589794675.5,286047007.1,N
1589794695.3,286047007.6,N
1589794715.2,286047005.3,N
1589794735.0,286047004.9,N
1589794735.9,286047004.9,N
1589794755.8,286047003.0,N
1589794775.6,286047001.8,N
1589794795.4,286047002.1,N
1589794815.3,286047000.0,N
1589794835.1,286047000.9,N
1589794855.9,286046999.0,N
1589794875.7,286047001.0,N
1589794895.5,286046998.2,N
1589794915.4,286046999.1,N
1589794935.2,286046999.3,N
1589794955.1,286047000.7,N
1589794956.0,286047000.7,N
1589794975.8,286047000.8,N
1589794995.6,286046998.8,N
1589795015.5,286047001.0,N
1589795035.3,286047000.7,N
1589795055.2,286047000.3,N
1589795075.9,286047000.7,N
1589795095.7,286046998.9,N
1589795115.6,286046999.5,N
1589795135.4,286046999.6,N
1589795155.2,286047000.3,N
1589795175.1,286047000.4,N
1589795176.0,286047000.4,N
1589795195.8,286046999.7,N
1589795215.7,286047000.8,N
1589795235.5,286046998.7,N
1589795255.3,286046999.0,N
1589795275.2,286046999.8,N
1589795295.0,286047001.0,N
1589795295.9,286047001.0,N
1589795315.8,286047000.9,N
1589795335.6,286046998.3,N
1589795355.4,286046998.2,N
1589795375.3,286046998.2,N
1589795395.1,286047002.5,N
1589795415.8,286047004.4,Y
1589795435.7,286046998.2,P
1589795455.5,286046999.3,N
1589795475.4,286046998.5,N
1589795495.2,286046997.1,Y
1589795515.0,286047000.7,P
1589795515.9,286047000.7,N
1589795535.8,286047000.2,N
1589795555.6,286047005.3,Y
1589795575.5,286047001.3,P
1589795595.3,286047000.1,N
1589795615.1,286046998.1,P
1589795635.9,286046999.9,N
1589795655.7,286047000.2,N
1589795675.6,286047002.7,N
1589795695.4,286047003.9,N
1589795715.2,286047001.3,N
1589795735.1,286047002.8,N
1589795736.0,286047002.8,N
1589795755.8,286047003.6,N
1589795775.7,286047002.6,N
1589795795.5,286047002.2,N
1589795815.3,286047002.3,N
1589795835.2,286047002.4,N
1589795855.0,286047004.1,N
1589795855.9,286047004.1,N
1589795875.7,286047001.8,N
1589795895.6,286047002.2,N
1589795915.4,286047002.5,N
1589795935.3,286047001.8,N
1589795955.1,286047004.0,N
1589795956.0,286047004.0,N
1589795975.8,286047003.8,N
1589795995.7,286047005.8,Y
